Temp
10 8 8 10 8 11 11 11 11 10 11 13 10 7 4 3 2 1 1 1 2 2 2 2 3 3 4 4 5 5 5 5 5 5 5 5 3 3 5 5 6 6 7 8
9 7 9 10 9 10 9 9 9 9 11 11 6 6 3 3 1 1 0 0 1 2 2 2 2 3 3 4 4 4 3 2 1 1 0 -0 -0 -1 0 2 3 2 5 6
8 11 11 10 10 9 9 9 9 11 12 10 7 7 3 3 1 1 -0 -0 -0 -0 0 1 2 2 2 3 3 2 2 1 1 0 -1 -1 -1 -1 -3 -2 -1 1 3 5
8 10 10 10 10 9 8 10 10 10 10 9 10 8 6 2 1 1 -0 -1 -1 -0 -0 -0 -0 1 1 2 2 1 1 1 -0 -1 -2 -3 -4 -3 -3 -3 -2 -0 1 3
9 11 11 9 10 10 10 11 10 10 9 9 9 8 7 3 2 1 -1 -1 -1 -2 -2 -1 -1 0 1 1 2 2 1 -0 -1 -2 -3 -4 -5 -4 -4 -2 -2 -1 1 2
9 11 11 10 11 12 11 11 8 7 7 6 9 9 12 2 3 -0 -1 -1 -2 -2 -1 -1 -1 0 1 1 1 1 0 -1 -2 -3 -5 -5 -5 -4 -3 -3 -2 -1 -0 2
9 9 10 11 10 10 10 9 8 7 5 8 9 8 9 2 1 1 -1 -2 -2 -2 -2 -2 -1 -0 0 -0 -1 -1 -2 -3 -3 -4 -6 -6 -6 -5 -3 -3 -3 -1 0 2
7 7 9 10 9 10 9 10 8 9 9 8 9 7 6 1 -0 -1 -1 -2 -2 -2 -3 -3 -2 -1 -1 -1 -1 -1 -2 -2 -4 -4 -6 -7 -7 -6 -6 -4 -3 -2 -1 1
5 7 10 11 11 10 9 8 11 10 9 7 7 4 3 0 -1 -1 -2 -2 -2 -3 -3 -3 -2 -2 -2 -1 -1 -1 -2 -3 -4 -5 -6 -6 -7 -7 -6 -5 -4 -3 -1 1
8 7 9 10 11 11 11 10 8 6 7 7 5 5 5 1 1 -2 -4 -3 -3 -3 -3 -3 -3 -3 -2 -2 -2 -2 -2 -2 -3 -4 -5 -7 -7 -6 -6 -6 -5 -4 -3 -1
8 6 8 9 9 8 8 8 8 8 7 6 3 4 2 2 2 -2 -4 -2 -2 -3 -3 -4 -3 -3 -2 -2 -2 -2 -2 -2 -2 -3 -4 -5 -6 -6 -6 -6 -5 -5 -4 -2
7 4 3 7 9 10 9 8 8 6 7 7 3 6 -0 -0 -0 -1 -3 -3 -3 -4 -4 -4 -4 -3 -2 -2 -2 -1 -2 -2 -2 -2 -3 -4 -5 -5 -5 -5 -5 -4 -4 -4
7 4 5 6 7 8 8 7 7 6 5 6 5 3 0 -0 -2 -2 -3 -3 -3 -4 -4 -4 -3 -3 -2 -3 -2 -2 -2 -3 -2 -2 -2 -3 -3 -5 -5 -4 -3 -3 -3 -3
9 6 6 5 5 5 7 6 7 6 6 6 5 5 1 -0 -1 -3 -3 -3 -3 -4 -4 -4 -4 -3 -3 -4 -2 -2 -2 -3 -2 -2 -2 -3 -2 -4 -4 -3 -2 -3 -3 -4
5 5 4 6 7 6 4 4 5 5 5 5 5 4 3 1 -1 -2 -3 -3 -4 -4 -4 -4 -4 -4 -4 -4 -3 -3 -3 -3 -3 -3 -2 -3 -3 -3 -3 -3 -3 -3 -4 -3
4 3 3 2 5 5 4 5 4 4 4 4 4 4 1 0 -1 -3 -3 -3 -4 -5 -4 -5 -4 -4 -5 -5 -4 -3 -3 -3 -3 -3 -3 -4 -3 -4 -3 -4 -3 -3 -3 -4
4 4 4 5 5 5 5 4 4 5 5 5 4 5 -2 -2 -2 -3 -3 -3 -4 -4 -4 -5 -4 -5 -5 -5 -4 -4 -4 -4 -4 -4 -4 -4 -4 -4 -4 -4 -4 -4 -4 -4
4 4 4 5 4 5 5 4 4 4 5 4 2 -1 -1 -1 -2 -2 -2 -3 -4 -4 -5 -5 -5 -5 -5 -5 -5 -4 -4 -4 -4 -4 -4 -4 -4 -4 -4 -4 -4 -5 -5 -5
5 4 5 5 5 5 7 4 4 4 5 3 2 -2 -3 -3 -3 -4 -3 -2 -3 -4 -5 -5 -5 -6 -6 -5 -5 -4 -4 -4 -4 -5 -5 -5 -5 -5 -5 -4 -5 -5 -5 -5
6 5 4 4 5 5 7 5 5 5 4 1 0 -2 -3 -2 -2 -4 -3 -3 -4 -4 -4 -5 -5 -6 -6 -5 -5 -5 -4 -4 -4 -5 -5 -6 -6 -6 -6 -6 -6 -6 -5 -6
4 4 5 4 5 5 6 5 6 5 4 1 1 -2 -3 -2 -1 -0 -3 -3 -4 -4 -4 -5 -6 -6 -6 -6 -6 -5 -5 -5 -5 -5 -5 -5 -5 -6 -6 -7 -7 -7 -7 -7
5 4 3 4 5 5 5 4 4 3 2 2 1 -0 -2 -1 -1 -2 -3 -4 -4 -4 -5 -5 -6 -6 -6 -6 -6 -5 -5 -6 -6 -6 -5 -6 -6 -6 -6 -7 -7 -7 -7 -7
5 5 4 5 4 2 3 3 3 4 4 2 2 -0 -1 -1 -2 -3 -4 -4 -4 -4 -5 -5 -6 -6 -6 -6 -6 -6 -6 -6 -6 -6 -6 -6 -7 -7 -7 -7 -6 -6 -6 -7
4 4 3 3 2 1 3 3 4 4 4 4 3 2 -0 -0 -2 -3 -4 -4 -4 -4 -5 -5 -5 -6 -6 -6 -6 -5 -5 -6 -6 -6 -6 -7 -7 -8 -8 -8 -8 -8 -8 -9
4 4 2 1 0 1 2 3 3 3 3 3 2 2 0 -0 -2 -2 -3 -4 -4 -4 -5 -5 -5 -6 -6 -6 -6 -6 -6 -6 -6 -6 -7 -7 -8 -8 -8 -9 -9 -11 -13 -13
3 2 1 1 3 3 2 3 3 3 3 2 2 -0 -1 -0 -1 -3 -4 -4 -4 -4 -5 -5 -5 -5 -5 -6 -6 -6 -6 -6 -6 -6 -7 -7 -7 -8 -8 -9 -10 -11 -12 -12
Height
1516 1520 1520 1512 1516 1516 1518 1520 1520 1515 1508 1507 1510 1516 1521 1524 1525 1525 1524 1523 1521 1518 1518 1516 1512 1508 1504 1500 1495 1489 1484 1479 1474 1469 1464 1458 1453 1450 1448 1446 1443 1441 1440 1441
1518 1522 1510 1509 1511 1515 1520 1523 1523 1515 1507 1509 1515 1515 1518 1519 1521 1522 1523 1523 1521 1517 1516 1514 1511 1507 1502 1496 1491 1486 1481 1476 1470 1465 1461 1457 1450 1444 1440 1438 1436 1435 1433 1432
1513 1506 1506 1510 1514 1514 1515 1520 1518 1514 1507 1507 1512 1511 1517 1518 1519 1521 1521 1521 1520 1517 1514 1511 1508 1504 1499 1493 1487 1483 1478 1473 1467 1462 1456 1450 1444 1438 1435 1434 1431 1428 1425 1424
1509 1503 1504 1507 1511 1511 1515 1507 1507 1510 1513 1519 1505 1512 1508 1513 1516 1517 1518 1518 1517 1516 1515 1512 1508 1503 1496 1490 1485 1480 1475 1469 1465 1460 1453 1445 1439 1435 1433 1429 1424 1420 1418 1415
1505 1500 1501 1506 1505 1503 1507 1501 1502 1504 1510 1511 1510 1516 1497 1510 1513 1512 1515 1516 1516 1516 1516 1511 1506 1500 1496 1490 1484 1477 1473 1469 1464 1457 1449 1444 1440 1435 1427 1423 1419 1415 1411 1408
1501 1497 1499 1500 1497 1497 1499 1501 1505 1510 1515 1523 1506 1510 1472 1510 1503 1508 1512 1514 1514 1513 1511 1510 1506 1500 1494 1490 1485 1478 1472 1468 1462 1454 1452 1447 1439 1430 1424 1419 1414 1410 1405 1401
1500 1497 1494 1496 1497 1496 1499 1507 1516 1518 1526 1507 1497 1506 1484 1502 1503 1505 1510 1511 1512 1512 1509 1508 1504 1499 1493 1489 1485 1478 1474 1468 1462 1458 1453 1445 1437 1429 1423 1417 1411 1405 1400 1397
1507 1504 1490 1488 1491 1493 1495 1497 1509 1502 1502 1499 1493 1501 1494 1502 1505 1507 1509 1512 1510 1511 1509 1507 1503 1499 1493 1490 1486 1480 1475 1469 1466 1459 1452 1444 1436 1429 1423 1417 1410 1403 1398 1393
1510 1500 1487 1486 1485 1489 1490 1495 1485 1493 1497 1505 1497 1501 1498 1502 1504 1507 1509 1510 1509 1510 1508 1505 1503 1500 1495 1491 1487 1482 1477 1474 1468 1460 1452 1443 1435 1429 1422 1415 1409 1402 1396 1391
1493 1502 1487 1483 1480 1479 1481 1482 1494 1504 1503 1502 1505 1502 1492 1497 1498 1503 1507 1507 1509 1508 1508 1507 1504 1501 1495 1492 1489 1485 1480 1477 1471 1464 1454 1445 1438 1430 1422 1418 1411 1404 1396 1391
1491 1498 1489 1485 1485 1487 1488 1488 1488 1495 1497 1498 1520 1502 1487 1488 1488 1496 1502 1504 1507 1508 1508 1506 1504 1500 1496 1493 1489 1485 1481 1479 1474 1466 1459 1451 1444 1436 1430 1423 1415 1406 1399 1391
1488 1497 1506 1487 1480 1478 1480 1487 1490 1497 1491 1491 1505 1485 1489 1487 1487 1493 1499 1503 1505 1507 1507 1505 1503 1499 1497 1492 1491 1486 1484 1480 1476 1471 1464 1458 1452 1443 1434 1426 1421 1411 1405 1399
1485 1498 1500 1489 1486 1479 1480 1482 1484 1491 1496 1489 1497 1495 1489 1490 1492 1495 1497 1501 1504 1505 1505 1503 1501 1499 1493 1497 1493 1489 1486 1484 1479 1475 1470 1464 1456 1448 1440 1433 1427 1417 1414 1411
1478 1485 1486 1496 1491 1487 1483 1485 1483 1488 1489 1483 1484 1479 1486 1489 1490 1493 1496 1498 1501 1503 1503 1502 1501 1498 1497 1500 1495 1491 1489 1487 1483 1479 1475 1469 1463 1455 1449 1443 1436 1428 1426 1421
1481 1486 1487 1482 1479 1481 1485 1485 1487 1489 1484 1484 1478 1480 1473 1478 1482 1485 1492 1495 1499 1501 1501 1500 1501 1498 1502 1501 1497 1494 1492 1490 1486 1483 1478 1474 1470 1464 1458 1452 1447 1442 1435 1432
1481 1488 1489 1492 1480 1480 1482 1479 1483 1482 1482 1480 1477 1477 1474 1474 1479 1484 1488 1492 1497 1499 1498 1499 1499 1500 1504 1501 1497 1496 1494 1492 1490 1487 1482 1480 1475 1471 1465 1461 1456 1451 1445 1440
1483 1483 1485 1476 1476 1478 1476 1472 1473 1469 1467 1464 1472 1464 1471 1476 1477 1480 1485 1490 1494 1496 1496 1498 1499 1501 1503 1502 1499 1498 1497 1495 1493 1491 1487 1484 1480 1477 1472 1468 1464 1458 1453 1451
1477 1482 1483 1476 1479 1475 1463 1462 1462 1463 1459 1461 1463 1467 1468 1470 1475 1480 1483 1487 1491 1493 1496 1499 1500 1503 1503 1502 1500 1499 1499 1497 1496 1493 1491 1488 1484 1481 1478 1474 1470 1466 1462 1458
1467 1474 1477 1472 1471 1464 1455 1458 1462 1461 1453 1452 1458 1465 1470 1473 1478 1481 1483 1486 1488 1491 1495 1498 1501 1504 1504 1503 1502 1501 1500 1499 1497 1495 1494 1492 1490 1486 1483 1477 1474 1471 1468 1465
1462 1466 1474 1474 1468 1465 1452 1453 1455 1457 1462 1454 1455 1463 1468 1473 1477 1476 1479 1483 1487 1491 1494 1497 1501 1504 1504 1504 1503 1503 1501 1500 1499 1498 1497 1496 1494 1490 1487 1483 1480 1477 1473 1469
1463 1465 1465 1465 1463 1460 1452 1453 1456 1462 1464 1454 1456 1459 1464 1468 1470 1468 1475 1482 1487 1491 1494 1498 1501 1503 1504 1505 1505 1504 1503 1502 1501 1501 1500 1499 1497 1495 1493 1490 1487 1484 1480 1476
1456 1461 1465 1464 1460 1458 1449 1455 1458 1454 1454 1454 1455 1458 1463 1466 1468 1470 1476 1482 1486 1490 1494 1498 1500 1502 1504 1505 1505 1505 1504 1504 1504 1503 1502 1501 1500 1497 1496 1494 1491 1488 1485 1483
1453 1449 1454 1454 1453 1448 1450 1450 1450 1451 1452 1453 1454 1458 1461 1465 1468 1472 1477 1483 1487 1491 1494 1497 1499 1501 1503 1505 1505 1506 1505 1506 1506 1505 1504 1503 1501 1499 1497 1495 1492 1491 1489 1486
1445 1446 1450 1451 1449 1448 1449 1450 1450 1451 1452 1453 1455 1457 1461 1464 1469 1473 1478 1483 1486 1490 1493 1496 1498 1500 1502 1504 1505 1506 1506 1506 1507 1506 1505 1504 1503 1501 1499 1497 1494 1491 1489 1486
1443 1445 1449 1451 1448 1449 1448 1448 1449 1451 1452 1453 1455 1458 1461 1465 1469 1473 1478 1482 1486 1490 1493 1496 1498 1500 1502 1503 1505 1506 1506 1506 1506 1506 1505 1504 1503 1502 1500 1497 1494 1492 1491 1490
1439 1442 1449 1448 1440 1443 1443 1445 1449 1451 1452 1454 1455 1458 1463 1466 1469 1474 1478 1483 1486 1490 1493 1495 1497 1499 1502 1503 1504 1505 1505 1506 1506 1506 1505 1504 1503 1502 1500 1498 1496 1495 1493 1491
Wind_Speed
1 3 5 9 7 2 2 2 4 5 5 2 2 4 6 4 3 3 6 10 13 15 17 18 21 24 26 28 30 33 35 36 37 38 39 40 41 38 34 31 31 30 25 27
2 5 11 2 5 4 3 4 6 7 6 6 5 5 3 5 2 1 4 8 13 16 18 19 22 25 27 29 31 33 35 36 36 37 38 37 37 37 34 31 29 27 27 24
7 5 4 5 3 5 5 5 5 7 3 2 4 4 5 2 4 3 2 7 11 17 21 23 24 27 28 30 33 34 35 35 36 36 38 39 38 36 35 32 31 29 26 26
6 8 10 6 5 7 5 9 12 7 2 5 3 6 4 5 5 4 2 6 11 15 18 20 24 26 29 31 32 34 34 35 35 36 37 38 39 39 36 33 33 28 28 29
7 2 2 3 6 7 5 5 9 7 5 0 3 1 1 6 6 6 4 3 7 12 16 19 23 25 27 30 32 34 34 35 35 36 36 36 35 35 36 32 28 27 27 24
6 1 4 6 4 3 3 1 5 4 3 4 6 6 13 5 4 5 6 1 5 10 14 17 20 23 25 28 31 33 35 35 35 35 32 31 32 33 33 29 29 30 28 26
8 14 9 8 6 7 5 4 2 2 0 7 7 7 9 4 3 4 7 3 3 10 13 17 21 24 26 29 31 33 34 35 35 32 31 29 28 26 25 28 30 28 27 24
2 6 5 2 11 7 8 10 5 5 4 3 3 6 5 3 8 9 7 4 3 7 11 15 19 22 24 26 28 31 33 35 32 30 31 29 26 25 23 23 24 23 23 23
4 5 3 3 3 6 3 6 13 6 3 2 4 5 1 6 5 9 8 3 4 6 10 13 16 18 20 22 24 27 29 31 31 30 30 29 27 26 24 22 19 17 17 18
4 6 6 6 3 5 8 4 3 4 4 5 4 4 5 9 11 8 6 6 2 4 7 9 13 16 18 18 19 21 24 27 28 29 30 30 29 25 24 21 18 16 13 8
5 5 5 4 1 2 5 3 3 2 3 2 1 5 2 4 9 11 12 8 3 2 4 7 11 14 17 18 19 19 21 23 26 29 31 31 29 26 25 24 23 24 19 16
6 3 2 10 5 6 6 6 2 3 3 3 3 8 3 1 8 17 15 10 5 1 2 6 10 13 15 19 19 21 21 21 23 26 27 29 30 31 32 31 32 33 33 29
5 2 3 6 4 3 4 4 5 3 2 6 2 5 2 6 7 12 15 11 6 0 4 6 8 13 16 16 17 19 21 22 22 24 27 29 30 33 35 38 39 44 42 40
13 5 6 7 5 3 2 4 2 6 4 2 8 8 6 8 9 11 14 13 8 3 5 7 9 12 13 13 16 18 19 21 22 23 26 30 32 35 35 35 35 39 39 41
1 7 3 4 5 3 5 4 6 9 8 7 4 7 3 13 14 19 19 15 10 6 6 6 8 11 9 11 15 17 19 20 22 24 26 30 30 32 34 35 37 38 42 42
0 4 1 4 4 7 9 9 13 13 8 10 13 14 2 3 18 19 19 17 14 9 9 7 8 8 7 10 14 16 18 20 21 24 27 28 29 31 34 36 36 37 39 40
3 3 2 5 4 6 9 15 16 8 6 6 8 4 6 6 14 20 23 21 17 12 10 9 8 7 6 8 11 14 16 18 20 23 25 27 29 30 33 34 35 38 39 38
6 4 2 2 1 4 5 1 3 10 10 8 3 4 5 6 11 20 21 22 18 13 11 10 8 7 6 8 9 11 13 17 19 22 24 25 27 29 30 32 34 36 37 38
5 5 2 3 3 4 5 4 5 5 5 8 6 7 8 17 15 8 17 18 18 15 13 10 8 5 5 6 8 8 11 14 18 21 23 24 24 26 28 31 33 34 35 36
9 8 4 3 3 3 3 2 5 3 4 2 10 12 17 18 4 4 23 19 18 16 13 10 9 7 5 6 6 7 11 13 17 18 20 21 23 25 27 29 30 31 32 34
4 3 10 5 3 5 3 5 7 2 4 6 15 20 23 6 4 7 26 21 18 17 14 11 9 7 5 5 4 6 10 13 14 14 16 18 20 21 23 24 26 28 31 32
7 4 3 2 5 7 9 6 5 3 2 8 12 17 21 9 8 19 27 25 22 19 16 12 9 8 7 5 3 5 8 10 10 11 13 15 17 19 21 22 24 26 28 30
3 5 4 6 4 1 4 1 3 5 4 6 11 15 21 16 16 25 29 25 21 18 15 11 9 9 8 6 5 4 6 7 7 8 10 12 14 16 18 20 22 23 25 28
1 2 3 2 3 3 4 4 4 4 2 6 9 13 19 19 21 27 28 24 22 18 13 11 10 10 9 9 7 5 5 5 4 5 7 9 11 13 15 17 20 22 24 26
3 5 4 3 3 3 10 8 7 6 6 8 10 13 19 18 22 25 26 23 21 19 14 10 9 9 9 9 8 6 6 4 3 3 5 7 9 10 13 16 18 18 19 19
6 5 4 4 5 3 2 13 11 8 8 8 12 16 17 17 22 25 24 20 20 19 15 12 10 9 9 9 8 7 6 4 2 1 3 4 7 9 11 13 13 13 14 15
Wind_Direction
26 85 204 223 198 121 99 283 283 272 263 320 269 192 184 152 100 61 29 18 11 10 4 360 359 358 355 352 350 347 342 339 337 334 332 328 327 322 316 306 299 296 286 272
38 237 238 140 179 207 232 257 266 285 261 190 171 229 200 218 180 111 31 11 3 360 1 360 1 360 358 356 353 350 348 347 346 344 339 335 330 327 325 317 308 300 294 287
193 196 97 176 205 205 223 210 235 235 315 62 150 252 204 190 162 160 29 12 8 4 359 359 1 2 360 359 357 355 352 349 346 343 339 337 334 331 332 327 317 309 301 295
247 252 247 253 220 188 251 208 234 224 169 243 157 280 224 183 181 192 201 5 5 3 2 1 0 3 4 3 0 358 354 351 347 344 342 340 336 331 329 325 320 315 303 298
236 238 194 185 222 176 233 244 208 204 201 67 194 256 210 130 220 202 161 24 7 5 1 5 6 6 7 5 3 0 357 352 349 346 346 340 334 330 328 326 320 315 309 302
245 327 179 211 243 177 5 351 39 53 92 261 182 180 273 186 208 137 156 107 3 5 10 9 9 8 12 10 7 6 2 357 353 349 347 346 339 334 332 328 317 313 308 303
261 258 254 218 270 285 169 96 294 278 146 246 186 197 259 180 167 144 154 152 16 8 13 10 10 11 17 14 10 9 6 2 358 353 352 353 348 342 334 322 322 320 315 312
216 315 192 191 211 211 200 190 192 235 214 263 120 222 258 137 141 137 137 131 52 15 15 15 13 15 18 16 13 12 10 7 0 359 360 3 355 352 346 339 331 327 318 306
196 259 294 176 200 146 254 195 231 251 360 312 248 297 304 142 156 162 161 142 51 10 15 17 16 16 16 17 17 17 13 10 8 9 8 7 5 5 4 2 350 341 320 307
240 293 251 274 283 279 206 170 97 80 225 227 258 269 240 219 208 178 168 158 97 358 7 17 20 21 23 17 16 19 22 17 15 21 21 23 15 19 20 24 22 24 22 336
167 171 250 17 84 125 3 359 99 310 242 235 247 256 216 232 191 177 181 168 164 321 4 24 26 24 27 25 21 22 24 25 20 25 29 33 33 38 40 39 40 44 43 50
220 162 193 249 228 243 181 177 114 201 215 241 157 260 348 101 135 160 169 167 172 324 55 41 30 28 30 27 27 30 29 31 25 23 34 40 44 49 56 57 59 58 55 61
186 233 324 320 344 346 205 195 149 158 268 215 211 261 108 104 120 163 161 166 172 175 126 68 43 35 38 30 36 40 41 40 41 38 43 45 47 50 55 61 62 65 62 59
180 188 185 241 215 185 288 15 288 201 254 251 241 270 202 198 187 174 173 174 168 151 118 84 60 52 44 38 45 49 48 48 50 49 50 51 51 56 55 58 60 65 67 68
208 221 213 243 200 174 207 219 232 218 240 243 311 242 205 203 199 176 181 170 167 160 138 105 75 65 53 54 56 55 54 51 53 55 55 55 54 58 62 61 65 67 68 66
296 242 163 277 241 254 259 242 244 229 230 238 242 252 226 150 158 165 179 177 182 173 152 133 98 81 66 61 60 57 58 58 57 59 60 60 59 57 58 61 59 59 60 62
235 149 141 257 212 234 249 233 217 215 217 189 209 223 152 153 168 173 180 186 186 174 162 152 127 106 92 70 68 64 60 64 64 63 61 60 60 58 56 56 57 57 56 57
150 146 168 254 174 238 247 249 207 222 245 203 157 172 160 167 175 186 190 185 179 168 157 157 141 127 104 85 76 72 69 67 65 66 63 59 56 56 56 55 54 55 56 55
180 137 238 243 209 292 266 192 183 177 285 209 165 125 124 138 144 177 191 190 178 166 157 148 147 153 113 100 85 83 78 72 68 63 61 61 57 55 53 51 51 51 50 51
196 165 200 185 220 251 260 186 160 132 296 134 144 154 154 149 169 222 184 179 169 165 160 156 148 152 144 101 94 97 85 74 70 64 61 59 57 54 52 52 50 49 49 50
164 192 223 208 251 271 233 158 138 85 244 177 180 167 163 175 194 173 173 170 172 168 162 164 164 161 154 119 98 103 92 80 70 66 62 58 56 55 53 52 52 51 50 48
178 173 208 164 223 246 154 125 175 180 117 165 176 183 168 165 151 159 168 167 168 167 166 171 180 181 167 152 137 116 100 84 77 68 64 58 53 50 47 46 47 45 44 44
180 183 186 186 214 173 211 90 162 155 151 181 181 180 179 163 157 166 166 169 172 171 169 173 188 189 183 177 163 151 111 92 77 68 62 54 49 45 41 36 35 35 36 36
200 148 150 110 223 234 217 194 171 174 178 175 182 179 180 169 166 166 169 171 174 177 178 177 183 187 188 187 179 166 140 120 92 72 62 53 45 40 37 34 33 28 28 29
174 137 152 284 282 246 233 212 187 163 159 162 172 182 179 179 173 173 172 175 179 181 182 185 191 193 190 186 185 177 167 155 132 72 55 45 37 32 28 27 30 28 29 28
188 161 165 222 200 139 195 194 178 165 155 165 176 171 177 184 175 176 175 180 188 187 189 190 193 199 198 191 188 186 180 177 175 71 34 22 17 19 22 23 28 25 21 18